User: anonymous   Login
Location: Unspecified
(0.0000°N, 0.0000°E)
Time: 01:54:06
(UTC+00:00)
Language:

COSMOS 2509 - Orbit

View from above orbital plane
View from above orbital plane
View from above satellite
View from above satellite

Ground track
Ground track

The orbit data is extracted from the following two-line orbital elements,

1 40922U 15050C   19112.44021305  .00000030  00000-0  14563-3 0  9996
2 40922  82.4839 265.7588 0015193 335.7563  24.2799 12.42873771162302
Epoch (UTC): 22 April 2019 10:33:54
Eccentricity: 0.0015193
inclination: 82.4839°
perigee height: 1482 km
apogee height: 1506 km
right ascension of ascending node: 265.7588°
argument of perigee: 335.7563°
revolutions per day: 12.42873771
mean anomaly at epoch: 24.2799°
orbit number at epoch: 16230

The dashed part of the orbit path shows where the satellite is in the earth's shadow,  

DLR